Flag for Czech Republic Weather past 2 weeks in Ostrava, Czech Republic

Now
31 °F

Overcast.


Feels Like: 26 °F
Forecast: 23 / 36 °F
Wind: 5 mph from Southwest

Location: Ostrava / Mosnov

Current Time: Jan 26, 2015 at 6:02:14 PM

Latest Report: Jan 26, 2015 at 5:00 PM


Visibility: 13 mi

Pressure: 30.23 "Hg

Humidity: 67%

Dew point: 21 °F

Location of OstravaLocation

Historic Weather in Ostrava — Graph

°F

Ostrava temperature yesterday

Maximum temperature yesterday: 32 °F (at 9:00 PM)
Minimum temperature yesterday: 27 °F (at 5:00 AM)
Average temperature yesterday: 29 °F

Past Weeks' High & Low Weather Summary

 TemperatureHumidityPressure
High52 °F (Jan 13, 2:00 PM)98% (Jan 18, 8:00 AM)30.34 "Hg (Jan 18, 8:00 AM)
Low27 °F (Jan 25, 5:00 AM)30% (Jan 13, 2:00 PM)29.75 "Hg (Jan 17, 6:00 AM)
Average37 °F83%30.04 "Hg
* Reported Jan 11 4:00 PM — Jan 26 4:00 PM, Ostrava, Weather by CustomWeather, © 2014

Note: Actual official high and low records may vary slightly from our data, if they occured in-between our weather recording intervals... More about our weather records

Advertising

Ostrava weather history for previous 24 hours

 ConditionsComfort  
Time TempWeatherWind HumidityBarometerVisibility
4:00 PM
Jan 26
32 °FOvercast.3 mph65%30.24 "Hg12 mi
3:00 PM32 °FOvercast.2 mph71%30.26 "Hg12 mi
2:00 PM32 °FOvercast.2 mph67%30.27 "Hg16 mi
1:00 PM32 °FOvercast.2 mph66%30.29 "Hg16 mi
12:00 PM34 °FOvercast.N/A64%30.30 "Hg12 mi
11:00 AM31 °FOvercast.1 mph75%30.33 "Hg16 mi
10:00 AM31 °FOvercast.2 mph79%30.34 "Hg16 mi
9:00 AM30 °FOvercast.2 mph85%30.33 "Hg16 mi
8:00 AM30 °FOvercast.2 mph87%30.33 "Hg12 mi
7:00 AM31 °FOvercast.N/A84%30.32 "Hg12 mi
6:00 AM31 °FOvercast.N/A83%30.32 "Hg16 mi
5:00 AM30 °FOvercast.N/A85%30.31 "Hg16 mi
3:00 AM31 °FOvercast.7 mph85%30.30 "Hg12 mi
2:00 AM31 °FLight snow. Overcast.3 mph87%30.30 "Hg9 mi
1:00 AM31 °FLight snow. Overcast.3 mph89%30.30 "Hg9 mi
12:00 AM32 °FLight snow. Overcast.5 mph88%30.29 "Hg7 mi
11:00 PM
Jan 25
31 °FLight snow. Overcast.5 mph90%30.29 "Hg7 mi
10:00 PM31 °FLight snow. Overcast.3 mph90%30.29 "Hg7 mi
9:00 PM32 °FLight snow. Overcast.5 mph90%30.28 "Hg7 mi
8:00 PM31 °FLight snow. Overcast.3 mph95%30.27 "Hg4 mi
7:00 PM30 °FLight snow. Low clouds.N/A96%30.27 "Hg1 mi
6:00 PM30 °FSnow. Low clouds.N/A96%30.26 "Hg1 mi
Weather by CustomWeather, © 2014

See weather overviewHow to use our weather pages